Probability
2 2 2 2 1 0 0 0 0 0 0 0 0 0 0 0 0 0 1 2 2 1 0 0 0 0 0 0 0 0 0 0 0 0 0 0 0 0 0 0 0 0 0 0
1 1 1 1 0 0 0 0 0 0 0 0 0 0 0 0 0 0 1 2 2 1 0 0 0 0 0 0 0 0 0 0 0 0 0 0 0 0 0 0 0 0 0 0
0 0 0 0 0 0 0 0 0 0 0 0 0 0 0 0 0 0 0 1 1 0 0 0 0 0 0 0 0 0 0 0 0 0 0 0 0 0 0 0 0 0 0 0
0 0 0 0 0 0 0 0 0 0 0 0 0 0 0 0 0 0 0 0 0 0 0 0 0 0 0 0 0 0 0 0 0 0 0 0 0 0 0 0 0 0 0 0
0 0 0 0 0 0 0 0 0 0 0 0 0 0 0 0 0 0 0 0 0 0 0 0 0 0 0 0 0 0 0 0 0 0 0 0 0 0 0 0 0 0 0 0
0 0 0 0 0 0 0 0 0 0 0 0 0 0 0 0 0 0 0 0 0 0 0 0 0 0 0 0 0 0 0 0 0 0 0 0 0 0 0 0 0 0 0 0
0 0 0 0 0 0 0 0 0 0 0 0 0 0 0 0 0 0 0 0 0 0 0 0 0 0 0 0 0 0 0 0 0 0 0 0 0 0 0 0 0 0 0 0
0 0 0 0 0 0 0 0 0 0 0 0 0 0 0 0 0 0 0 0 0 0 0 0 0 0 0 0 0 0 0 0 0 0 0 0 0 0 0 0 0 0 0 0
0 0 0 0 0 0 0 0 0 0 0 0 0 0 0 0 0 0 0 0 0 0 0 0 0 0 0 0 0 0 0 0 0 0 0 0 0 0 0 0 0 0 0 0
0 0 0 0 0 0 0 0 0 0 0 0 0 0 0 0 0 0 0 0 0 0 0 0 0 0 0 0 0 0 0 0 0 0 0 0 0 0 0 0 0 0 0 0
0 0 0 0 0 0 0 0 0 0 0 0 0 0 0 0 0 0 0 0 0 0 0 0 0 0 0 0 0 0 0 0 0 0 0 0 0 0 0 0 0 0 0 0
0 0 0 0 0 0 0 0 0 0 0 0 0 0 0 0 0 0 0 0 0 0 0 0 0 0 0 0 0 0 0 0 0 0 0 0 0 0 0 0 0 0 0 0
0 0 0 0 0 0 0 0 0 0 0 0 0 0 0 0 0 0 0 0 0 0 0 0 0 0 0 0 0 0 0 0 0 0 0 0 0 0 0 0 0 0 0 0
0 0 0 0 0 0 0 0 0 0 0 0 0 0 0 0 0 0 0 0 0 0 0 0 0 0 0 0 0 0 0 0 0 0 0 0 0 0 0 0 0 0 0 0
0 0 0 0 0 0 0 0 0 0 0 0 0 0 0 0 0 0 0 0 0 0 0 0 0 0 0 0 0 0 0 0 0 0 0 0 0 0 0 0 0 0 0 0
0 0 0 0 0 0 0 0 0 0 0 0 0 0 0 0 0 0 0 0 0 0 0 0 0 0 0 0 0 0 0 0 0 0 0 0 0 0 0 0 0 0 0 0
0 0 0 0 0 0 0 0 0 0 0 0 0 0 0 0 0 0 0 0 0 0 0 0 0 0 0 0 0 0 0 0 0 0 0 0 0 0 0 0 0 0 0 0
0 0 0 0 0 0 0 0 0 0 0 0 0 0 0 0 0 0 0 0 0 0 0 0 0 0 0 0 0 0 0 0 0 0 0 0 0 0 0 0 0 0 0 0
0 0 0 0 0 0 0 0 0 0 0 0 0 0 0 0 0 0 0 0 0 0 0 0 0 0 0 0 0 0 0 0 0 0 0 0 0 0 0 0 0 0 0 0
0 0 0 0 0 0 0 0 0 0 0 0 0 0 0 0 0 0 0 0 0 0 0 0 0 0 0 0 0 0 0 0 0 0 0 0 0 0 0 0 0 0 0 0
0 0 0 0 0 0 0 0 0 0 0 0 0 0 0 0 0 0 0 0 0 0 0 0 0 0 0 0 0 0 0 0 0 0 0 0 0 0 0 0 0 0 0 0
0 0 0 0 0 0 0 0 0 0 0 0 0 0 0 0 0 0 0 0 0 0 0 0 0 0 0 0 0 0 0 0 0 0 0 0 0 0 0 0 0 0 0 0
0 0 0 0 0 0 0 0 0 0 0 0 0 0 0 0 0 0 0 0 0 0 0 0 0 0 0 0 0 0 0 0 0 0 0 0 0 0 0 0 0 0 0 0
0 0 0 0 0 0 0 0 0 0 0 0 0 0 0 0 0 0 0 0 0 0 0 0 0 0 0 0 0 0 0 0 0 0 0 0 0 0 0 0 0 0 0 0
0 0 0 0 0 0 0 0 0 0 0 0 0 0 0 0 0 0 0 0 0 0 0 0 0 0 0 0 0 0 0 0 0 0 0 0 0 0 0 0 0 0 0 0
0 0 0 0 0 0 0 0 0 0 0 0 0 0 0 0 0 0 0 0 0 0 0 0 0 0 0 0 0 0 0 0 0 0 0 0 0 0 0 0 0 0 0 0
Wind_Speed
8 9 9 7 6 5 5 7 7 3 1 6 10 10 7 6 9 10 9 7 6 4 3 3 4 6 7 8 9 9 10 10 8 7 8 8 8 7 7 6 8 8 8 8
9 11 6 3 4 5 6 7 6 1 1 6 8 11 8 6 9 8 8 7 6 4 4 3 4 6 7 8 9 9 9 9 9 7 8 7 8 7 7 6 7 8 7 7
13 5 6 6 6 6 6 7 6 5 2 5 8 8 5 4 6 7 8 7 6 5 5 4 5 6 7 8 8 8 9 9 9 9 7 7 6 6 6 7 6 7 7 7
8 5 7 7 6 6 5 1 3 4 7 4 3 7 1 2 5 7 7 7 6 4 4 4 5 6 7 7 7 8 9 9 9 8 8 9 8 7 8 7 7 8 7 7
7 6 7 6 2 3 1 2 2 5 7 8 5 7 1 2 3 3 4 5 4 4 4 4 4 5 6 7 7 8 9 9 9 9 8 8 8 7 7 7 8 8 7 6
5 3 1 2 4 2 5 5 4 5 6 7 1 5 3 1 2 1 1 2 3 3 3 3 3 4 5 6 6 7 8 9 9 9 9 8 9 9 9 9 8 7 6 5
7 6 4 4 6 5 6 6 5 5 4 1 2 6 4 3 2 2 2 1 1 2 3 3 4 4 5 6 7 7 8 9 9 9 9 9 9 9 9 8 8 8 6 6
10 9 6 3 3 3 3 6 6 6 5 3 3 5 1 2 1 3 3 3 3 3 3 3 4 4 5 5 6 7 8 9 9 9 9 9 9 6 6 8 8 7 6 6
8 7 5 3 1 2 3 2 4 6 5 6 3 3 2 2 4 5 5 4 5 4 3 4 3 3 4 5 6 7 8 8 9 9 9 9 9 8 8 8 8 6 6 6
4 6 7 5 5 4 4 2 4 5 5 5 3 3 1 1 1 3 5 5 4 4 4 4 3 3 4 4 5 6 6 7 8 8 8 7 8 8 8 8 8 8 8 7
3 5 7 7 7 5 6 5 4 3 4 6 4 2 3 2 2 3 4 3 4 4 4 4 3 3 3 4 4 5 5 7 7 8 8 8 8 8 8 7 8 8 8 7
2 5 5 4 3 2 5 4 6 5 3 4 5 2 4 2 3 5 6 4 4 4 4 4 4 3 3 4 4 5 5 6 6 7 7 8 8 8 8 8 8 8 8 7
5 6 5 6 6 6 6 5 6 5 4 5 5 1 4 3 5 5 5 5 5 5 5 5 4 4 4 4 4 4 5 5 6 6 7 7 8 9 9 9 8 8 8 8
4 6 7 6 2 4 6 7 8 8 6 5 7 8 6 6 6 5 4 4 5 5 5 5 4 4 3 4 3 4 4 4 5 6 6 7 7 8 8 8 8 8 8 8
5 6 4 3 1 3 6 7 10 12 9 8 7 9 11 8 6 5 4 4 4 5 5 5 5 4 4 3 2 2 3 3 4 5 6 7 7 7 8 8 8 8 8 8
5 5 4 5 3 5 8 10 11 11 11 11 12 11 6 4 4 4 4 4 5 5 5 5 5 4 4 3 2 2 2 3 3 4 5 6 6 7 7 8 8 8 8 8
6 6 5 5 3 5 9 9 12 9 9 8 8 5 4 5 4 4 3 3 5 4 4 4 4 4 4 3 2 2 2 2 3 3 4 5 6 6 7 7 7 7 7 8
5 6 4 3 5 7 2 3 3 7 7 8 9 8 6 6 6 5 4 4 4 3 4 4 4 4 3 3 2 2 1 2 3 3 4 4 5 6 6 7 7 7 7 7
3 5 4 4 5 4 2 4 5 5 2 2 5 5 3 3 5 3 1 2 3 2 2 3 3 3 4 3 3 3 2 2 2 3 4 4 4 5 6 6 6 6 6 6
2 5 5 5 5 3 4 5 2 4 3 3 2 3 2 3 3 3 3 0 1 1 2 3 4 4 4 4 4 4 3 3 2 2 3 3 4 4 5 5 5 5 5 5
7 6 8 7 6 3 3 3 4 5 3 3 2 2 2 3 4 5 2 1 0 2 2 3 4 4 4 4 5 5 4 3 3 3 3 3 3 3 4 4 4 4 4 5
8 7 7 6 7 3 5 5 4 4 4 3 3 3 3 4 4 3 2 1 1 2 3 3 4 4 4 4 6 6 5 4 3 3 4 3 3 3 3 3 3 3 4 4
7 4 3 5 0 5 2 1 3 5 5 4 4 3 3 3 2 2 2 1 1 2 2 3 4 4 4 5 6 6 5 4 4 5 5 4 4 3 3 3 3 3 3 3
5 3 5 5 4 3 1 0 2 4 5 5 4 3 2 2 2 2 1 1 0 1 2 3 4 4 4 4 6 7 5 5 6 6 6 5 5 4 4 3 3 3 3 3
4 7 6 6 4 5 4 1 2 2 2 1 1 1 2 1 2 2 2 2 1 0 1 2 3 4 4 4 5 5 5 6 7 7 7 6 5 5 4 4 3 4 3 3
8 8 7 4 5 5 4 3 2 1 2 3 2 3 4 3 3 3 3 3 2 2 1 1 3 4 4 4 4 4 4 6 8 8 7 5 5 4 5 5 5 6 7 4
Wind_Direction
182 206 214 217 229 282 293 284 289 319 121 244 259 270 264 225 226 236 236 240 250 268 288 312 319 322 326 334 335 337 334 338 335 333 329 329 326 323 320 320 320 313 302 295
191 215 211 197 199 231 256 274 287 257 187 263 284 280 271 243 236 243 250 249 255 273 286 308 318 326 336 338 338 337 339 340 338 336 324 318 316 313 316 316 317 316 309 300
211 180 161 183 192 222 247 278 299 298 233 232 286 272 224 202 229 235 243 252 263 267 287 312 323 330 333 338 343 338 338 337 341 335 327 323 321 313 322 328 326 322 314 301
206 156 181 200 211 246 257 299 272 262 269 286 294 301 221 188 228 231 236 238 248 253 271 299 316 327 333 340 340 334 338 338 340 336 336 331 328 326 324 321 319 319 316 311
173 173 190 206 198 240 55 97 229 260 274 279 241 274 277 164 247 232 230 234 243 244 268 297 314 324 329 339 340 336 337 338 341 339 338 326 328 325 321 322 321 321 322 317
128 129 202 133 95 117 146 178 187 224 254 261 273 274 293 128 354 20 180 210 226 237 261 293 312 319 326 333 336 336 336 341 341 338 337 339 333 327 327 329 327 324 320 316
160 148 130 156 152 152 215 260 261 235 228 269 98 266 284 36 330 292 289 246 229 236 263 289 306 318 325 330 334 334 336 337 342 340 342 342 338 329 328 330 329 328 325 325
187 173 157 181 247 208 218 274 298 308 314 322 203 256 349 66 279 257 250 251 245 242 255 275 297 312 320 326 330 333 335 336 340 339 341 341 340 333 333 332 330 327 325 327
198 154 117 100 77 245 191 225 333 290 286 279 251 258 263 174 223 226 232 236 240 246 248 266 283 300 313 321 328 332 332 334 339 341 340 342 342 339 335 333 334 332 333 329
213 160 144 137 148 63 333 146 209 260 294 291 286 261 315 153 243 231 241 246 245 244 250 258 272 290 307 319 322 328 330 333 339 341 343 343 340 342 339 336 339 339 335 332
231 189 153 182 216 198 170 194 227 254 286 294 312 52 73 322 316 291 279 265 252 245 249 256 265 283 296 306 317 326 333 338 344 344 344 343 346 346 343 343 343 341 338 337
211 240 185 167 107 332 249 235 223 259 243 258 286 310 115 257 283 281 280 269 249 243 243 249 259 268 280 302 318 327 334 340 345 342 341 346 346 349 348 349 349 346 345 343
177 223 204 176 174 185 212 212 225 253 262 244 261 297 122 253 278 277 269 261 240 232 233 240 244 254 276 294 311 324 335 342 344 344 346 347 353 357 354 351 351 350 350 351
238 236 259 283 343 169 195 193 205 219 242 249 251 288 305 307 304 296 276 254 238 232 233 240 244 245 259 281 302 320 334 340 341 344 348 352 356 356 352 354 355 354 355 355
237 243 240 267 203 220 230 210 204 223 246 268 285 292 303 317 315 302 279 249 237 233 233 236 238 244 246 263 288 314 323 331 337 345 351 356 354 355 354 356 357 359 359 357
224 236 218 218 208 230 245 237 223 231 246 256 274 286 299 317 295 281 261 242 242 239 234 235 235 236 240 248 265 279 297 325 333 345 355 355 349 356 356 356 358 1 1 1
195 215 231 234 183 238 248 234 217 218 223 240 261 288 324 305 300 294 286 254 250 246 235 229 233 232 236 237 250 259 294 317 322 344 351 346 349 355 354 354 360 1 1 4
200 207 229 242 213 238 80 91 205 225 241 237 259 284 296 300 304 288 275 267 254 233 225 217 222 217 224 221 221 245 266 290 317 336 341 347 346 350 353 355 358 358 1 4
252 208 219 235 240 256 190 177 192 213 213 212 249 280 301 309 268 206 164 251 262 242 218 203 207 206 210 211 215 233 248 263 294 321 330 340 342 344 348 353 353 353 356 0
180 234 234 225 245 234 115 110 170 235 188 105 253 305 311 271 283 55 57 10 240 212 193 189 195 200 205 205 213 234 255 263 280 302 313 328 332 335 340 347 345 346 346 351
188 201 224 232 244 252 89 128 189 222 85 55 327 314 273 273 342 11 2 328 239 190 184 189 198 206 212 208 215 235 250 263 277 278 287 295 304 316 330 336 335 335 341 344
202 197 206 211 224 195 111 172 211 20 24 348 322 310 285 290 319 329 325 312 197 180 180 195 207 211 212 214 225 239 251 258 252 254 264 273 286 296 303 315 322 326 328 331
220 231 219 220 192 68 104 256 347 325 303 314 314 319 291 280 299 323 320 312 184 196 191 202 221 225 218 217 232 247 243 240 239 241 247 258 263 266 276 290 297 304 310 322
186 197 221 226 217 176 151 259 320 305 290 299 300 304 289 286 321 334 344 1 62 212 219 220 230 238 234 227 232 247 254 240 241 244 250 250 254 256 255 262 276 286 297 305
172 182 213 225 183 175 175 102 359 339 333 343 19 24 2 358 12 7 9 16 3 338 259 247 250 259 263 253 247 248 247 247 248 250 250 250 248 255 261 253 259 270 273 295
188 198 206 212 167 186 147 101 12 18 39 39 65 70 56 39 29 25 28 26 15 7 348 290 280 281 284 282 276 268 253 250 255 258 257 254 249 242 246 252 240 219 240 241